SYN001 NZQN-NZCH

Flight info

Callsign SYN001
Flight time 0h 43m
Altitude 27000
Route QN Q787 TIMJO Y153 DOPKI
Aircraft BCS3/M-SBDE2E3GIRWXY/LB1

Departure

Time 2026-05-08 07:40
Airport Queenstown Airport (NZQN)

Arrival

Time 2026-05-08 08:23
Airport Christchurch International Airport (NZCH)
Time Latitude Longitude Altitude Speed Heading
2026-05-08 07:16 -45.02106 168.73966 1173 ft 0 kts 207°
2026-05-08 07:32 -45.02100 168.73970 1169 ft 2 kts 207°
2026-05-08 07:32 -45.02088 168.73981 1171 ft 2 kts 229°
2026-05-08 07:33 -45.02079 168.74000 1169 ft 2 kts 254°
2026-05-08 07:33 -45.02077 168.74021 1171 ft 2 kts 279°
2026-05-08 07:33 -45.02079 168.74034 1170 ft 0 kts 295°
2026-05-08 07:35 -45.02077 168.74031 1169 ft 2 kts 311°
2026-05-08 07:35 -45.02067 168.74025 1170 ft 1 kts 354°
2026-05-08 07:36 -45.02056 168.74031 1170 ft 1 kts 32°
2026-05-08 07:36 -45.02029 168.74059 1178 ft 10 kts 31°
2026-05-08 07:36 -45.01939 168.74089 1177 ft 13 kts 329°
2026-05-08 07:36 -45.01925 168.74060 1176 ft 2 kts 271°
2026-05-08 07:37 -45.01944 168.73945 1179 ft 23 kts 256°
2026-05-08 07:37 -45.01973 168.73694 1174 ft 27 kts 266°
2026-05-08 07:37 -45.01993 168.73509 1169 ft 5 kts 238°
2026-05-08 07:37 -45.01998 168.73504 1169 ft 1 kts 207°
2026-05-08 07:38 -45.02001 168.73502 1168 ft 0 kts 200°
2026-05-08 07:38 -45.02002 168.73503 1168 ft 0 kts 185°
2026-05-08 07:38 -45.02003 168.73505 1168 ft 0 kts 159°
2026-05-08 07:38 -45.02004 168.73508 1168 ft 0 kts 134°
2026-05-08 07:39 -45.02004 168.73510 1168 ft 0 kts 112°
2026-05-08 07:39 -45.01996 168.73576 1168 ft 25 kts 72°
2026-05-08 07:39 -45.01909 168.74170 1177 ft 100 kts 77°
2026-05-08 07:39 -45.01704 168.75433 1406 ft 147 kts 76°
2026-05-08 07:40 -45.01473 168.76839 2334 ft 154 kts 78°
2026-05-08 07:40 -45.01233 168.78359 3152 ft 163 kts 79°
2026-05-08 07:40 -45.00987 168.79949 4133 ft 170 kts 79°
2026-05-08 07:40 -45.00724 168.81649 4982 ft 181 kts 78°
2026-05-08 07:41 -45.00215 168.83262 6020 ft 181 kts 52°
2026-05-08 07:41 -44.99255 168.84352 7097 ft 175 kts 25°
2026-05-08 07:41 -44.98099 168.84730 8207 ft 169 kts
2026-05-08 07:41 -44.96980 168.84407 9328 ft 163 kts 342°
2026-05-08 07:42 -44.96048 168.83538 10329 ft 160 kts 324°
2026-05-08 07:42 -44.95363 168.82207 10959 ft 185 kts 305°
2026-05-08 07:42 -44.95067 168.80306 11061 ft 206 kts 281°
2026-05-08 07:42 -44.95069 168.78342 11089 ft 201 kts 279°
2026-05-08 07:43 -44.95173 168.76370 11064 ft 212 kts 263°
2026-05-08 07:43 -44.95907 168.74406 11084 ft 242 kts 233°
2026-05-08 07:43 -44.97322 168.73061 11062 ft 250 kts 199°
2026-05-08 07:43 -44.99026 168.72872 11073 ft 245 kts 166°
2026-05-08 07:44 -45.00606 168.73896 11361 ft 256 kts 134°
2026-05-08 07:44 -45.01697 168.75826 11971 ft 254 kts 108°
2026-05-08 07:44 -45.02061 168.78177 12086 ft 240 kts 80°
2026-05-08 07:44 -45.01613 168.80285 12075 ft 214 kts 49°
2026-05-08 07:45 -45.00517 168.81524 12059 ft 200 kts 17°
2026-05-08 07:45 -44.99162 168.81554 12058 ft 197 kts 345°
2026-05-08 07:45 -44.98010 168.80393 12074 ft 212 kts 322°
2026-05-08 07:45 -44.96783 168.79321 12065 ft 205 kts 340°
2026-05-08 07:46 -44.95462 168.78589 12193 ft 208 kts 344°
2026-05-08 07:46 -44.94568 168.78120 12857 ft 202 kts 343°
2026-05-08 07:46 -44.92809 168.77600 14099 ft 190 kts 13°
2026-05-08 07:46 -44.91721 168.78540 15068 ft 185 kts 45°
2026-05-08 07:47 -44.91311 168.79593 15601 ft 185 kts 59°
2026-05-08 07:47 -44.90887 168.81270 16219 ft 182 kts 63°
2026-05-08 07:47 -44.90567 168.83106 16434 ft 206 kts 71°
2026-05-08 07:47 -44.90363 168.85331 16047 ft 261 kts 78°
2026-05-08 07:48 -44.90302 168.88239 14826 ft 334 kts 83°
2026-05-08 07:48 -44.89723 168.91599 14123 ft 369 kts 57°
2026-05-08 07:48 -44.88101 168.94407 14364 ft 372 kts 36°
2026-05-08 07:48 -44.86100 168.96810 14454 ft 390 kts 40°
2026-05-08 07:49 -44.84228 168.99696 14516 ft 408 kts 47°
2026-05-08 07:49 -44.82521 169.02966 14884 ft 407 kts 52°
2026-05-08 07:49 -44.81057 169.06117 15602 ft 373 kts 53°
2026-05-08 07:49 -44.79709 169.09149 15714 ft 362 kts 53°
2026-05-08 07:50 -44.78414 169.12164 16623 ft 356 kts 54°
2026-05-08 07:50 -44.77168 169.15131 17691 ft 348 kts 55°
2026-05-08 07:50 -44.75961 169.18029 18670 ft 338 kts 54°
2026-05-08 07:50 -44.74758 169.20917 19242 ft 343 kts 54°
2026-05-08 07:51 -44.73561 169.23789 19839 ft 347 kts 54°
2026-05-08 07:51 -44.72338 169.26725 20475 ft 349 kts 54°
2026-05-08 07:51 -44.71100 169.29693 21077 ft 352 kts 53°
2026-05-08 07:51 -44.69850 169.32685 21636 ft 356 kts 53°
2026-05-08 07:52 -44.68596 169.35689 22252 ft 358 kts 53°
2026-05-08 07:52 -44.67323 169.38727 22778 ft 362 kts 53°
2026-05-08 07:52 -44.66038 169.41801 23244 ft 364 kts 52°
2026-05-08 07:52 -44.64754 169.44867 23762 ft 365 kts 52°
2026-05-08 07:53 -44.63465 169.47942 24202 ft 367 kts 51°
2026-05-08 07:53 -44.62162 169.51048 24742 ft 366 kts 51°
2026-05-08 07:53 -44.60861 169.54141 25092 ft 371 kts 51°
2026-05-08 07:53 -44.59546 169.57265 25680 ft 370 kts 50°
2026-05-08 07:54 -44.58240 169.60371 26198 ft 372 kts 50°
2026-05-08 07:54 -44.56898 169.63538 26297 ft 384 kts 51°
2026-05-08 07:54 -44.55542 169.66744 26287 ft 385 kts 50°
2026-05-08 07:54 -44.54207 169.69924 26274 ft 373 kts 50°
2026-05-08 07:55 -44.52887 169.73055 26277 ft 373 kts 50°
2026-05-08 07:55 -44.51550 169.76207 26277 ft 379 kts 50°
2026-05-08 07:55 -44.50202 169.79386 26266 ft 378 kts 50°
2026-05-08 07:55 -44.48871 169.82530 26268 ft 373 kts 50°
2026-05-08 07:56 -44.47543 169.85658 26270 ft 376 kts 50°
2026-05-08 07:56 -44.46197 169.88818 26271 ft 378 kts 50°
2026-05-08 07:56 -44.44855 169.91973 26266 ft 376 kts 50°
2026-05-08 07:56 -44.43518 169.95115 26270 ft 375 kts 49°
2026-05-08 07:57 -44.42190 169.98227 26267 ft 376 kts 49°
2026-05-08 07:57 -44.40848 170.01369 26268 ft 377 kts 50°
2026-05-08 07:57 -44.39499 170.04527 26266 ft 377 kts 49°
2026-05-08 07:57 -44.38158 170.07663 26265 ft 375 kts 49°
2026-05-08 07:58 -44.36816 170.10795 26263 ft 375 kts 49°
2026-05-08 07:58 -44.35472 170.13926 26266 ft 376 kts 49°
2026-05-08 07:58 -44.34126 170.17059 26264 ft 375 kts 49°
2026-05-08 07:58 -44.32789 170.20174 26264 ft 374 kts 49°
2026-05-08 07:59 -44.31442 170.23305 26264 ft 375 kts 49°
2026-05-08 07:59 -44.30113 170.26388 26266 ft 376 kts 49°
2026-05-08 07:59 -44.28767 170.29511 26263 ft 375 kts 49°
2026-05-08 07:59 -44.27420 170.32632 26265 ft 374 kts 49°
2026-05-08 08:00 -44.26076 170.35742 26257 ft 374 kts 49°
2026-05-08 08:00 -44.24729 170.38854 26268 ft 375 kts 49°
2026-05-08 08:00 -44.23371 170.41979 26259 ft 375 kts 49°
2026-05-08 08:00 -44.22025 170.45085 26259 ft 374 kts 49°
2026-05-08 08:01 -44.20676 170.48183 26258 ft 374 kts 49°
2026-05-08 08:01 -44.19338 170.51257 26244 ft 375 kts 49°
2026-05-08 08:01 -44.17977 170.54392 26257 ft 373 kts 49°
2026-05-08 08:01 -44.16642 170.57437 26256 ft 373 kts 49°
2026-05-08 08:02 -44.15297 170.60534 26242 ft 374 kts 49°
2026-05-08 08:02 -44.13936 170.63631 26264 ft 374 kts 49°
2026-05-08 08:02 -44.12587 170.66730 26243 ft 374 kts 49°
2026-05-08 08:02 -44.11234 170.69815 26241 ft 372 kts 49°
2026-05-08 08:03 -44.09883 170.72893 26234 ft 373 kts 49°
2026-05-08 08:03 -44.08532 170.75983 26253 ft 373 kts 49°
2026-05-08 08:03 -44.07172 170.79059 26107 ft 373 kts 49°
2026-05-08 08:03 -44.05823 170.82149 25594 ft 372 kts 49°
2026-05-08 08:04 -44.04478 170.85200 25092 ft 369 kts 48°
2026-05-08 08:04 -44.03139 170.88228 24620 ft 367 kts 48°
2026-05-08 08:04 -44.01823 170.91203 24149 ft 365 kts 47°
2026-05-08 08:04 -44.00502 170.94196 23679 ft 364 kts 47°
2026-05-08 08:05 -43.99179 170.97205 23198 ft 363 kts 47°
2026-05-08 08:05 -43.97858 171.00188 22706 ft 361 kts 47°
2026-05-08 08:05 -43.96541 171.03160 22173 ft 360 kts 47°
2026-05-08 08:05 -43.95230 171.06117 21679 ft 358 kts 47°
2026-05-08 08:06 -43.93927 171.09055 21209 ft 356 kts 47°
2026-05-08 08:06 -43.92647 171.11941 20747 ft 353 kts 47°
2026-05-08 08:06 -43.91349 171.14865 20287 ft 352 kts 47°
2026-05-08 08:06 -43.90081 171.17717 19828 ft 352 kts 47°
2026-05-08 08:07 -43.88796 171.20605 19361 ft 350 kts 47°
2026-05-08 08:07 -43.87527 171.23462 18916 ft 347 kts 47°
2026-05-08 08:07 -43.86255 171.26311 18453 ft 349 kts 47°
2026-05-08 08:07 -43.84985 171.29160 18000 ft 346 kts 47°
2026-05-08 08:08 -43.83724 171.31990 17544 ft 344 kts 47°
2026-05-08 08:08 -43.82468 171.34806 17034 ft 342 kts 47°
2026-05-08 08:08 -43.81223 171.37593 16578 ft 339 kts 47°
2026-05-08 08:08 -43.79993 171.40345 16370 ft 334 kts 47°
2026-05-08 08:09 -43.78757 171.43097 16178 ft 338 kts 47°
2026-05-08 08:09 -43.77526 171.45836 15883 ft 339 kts 48°
2026-05-08 08:09 -43.76288 171.48597 15467 ft 336 kts 48°
2026-05-08 08:09 -43.75062 171.51330 15030 ft 332 kts 48°
2026-05-08 08:10 -43.73848 171.54032 14600 ft 330 kts 48°
2026-05-08 08:10 -43.72636 171.56725 14164 ft 329 kts 48°
2026-05-08 08:10 -43.71431 171.59399 13738 ft 326 kts 48°
2026-05-08 08:10 -43.70310 171.62140 13280 ft 335 kts 59°
2026-05-08 08:11 -43.69851 171.65395 12786 ft 354 kts 79°
2026-05-08 08:11 -43.69903 171.68806 12267 ft 355 kts 84°
2026-05-08 08:11 -43.70043 171.72158 11798 ft 355 kts 84°
2026-05-08 08:11 -43.70195 171.75549 11332 ft 346 kts 84°
2026-05-08 08:12 -43.70345 171.78800 10885 ft 332 kts 83°
2026-05-08 08:12 -43.70486 171.81938 10466 ft 322 kts 83°
2026-05-08 08:12 -43.70617 171.85007 10050 ft 319 kts 83°
2026-05-08 08:12 -43.70745 171.88068 9627 ft 318 kts 83°
2026-05-08 08:13 -43.70873 171.91080 9216 ft 309 kts 82°
2026-05-08 08:13 -43.70997 171.94009 8779 ft 301 kts 82°
2026-05-08 08:13 -43.71117 171.96864 8377 ft 293 kts 82°
2026-05-08 08:13 -43.71232 171.99636 8004 ft 285 kts 82°
2026-05-08 08:14 -43.71070 172.02233 7640 ft 258 kts 61°
2026-05-08 08:14 -43.70508 172.04516 7337 ft 245 kts 55°
2026-05-08 08:14 -43.69900 172.06662 7036 ft 237 kts 54°
2026-05-08 08:14 -43.69297 172.08729 6717 ft 232 kts 54°
2026-05-08 08:15 -43.68697 172.10779 6416 ft 229 kts 53°
2026-05-08 08:15 -43.68106 172.12800 6122 ft 224 kts 53°
2026-05-08 08:15 -43.67525 172.14774 5827 ft 220 kts 53°
2026-05-08 08:15 -43.66952 172.16723 5532 ft 217 kts 53°
2026-05-08 08:16 -43.66389 172.18640 5237 ft 212 kts 53°
2026-05-08 08:16 -43.65849 172.20487 4966 ft 203 kts 53°
2026-05-08 08:16 -43.65333 172.22252 4699 ft 196 kts 53°
2026-05-08 08:16 -43.64823 172.23980 4425 ft 192 kts 53°
2026-05-08 08:17 -43.64313 172.25691 4187 ft 193 kts 53°
2026-05-08 08:17 -43.63805 172.27391 3927 ft 193 kts 54°
2026-05-08 08:17 -43.63303 172.29098 3674 ft 189 kts 54°
2026-05-08 08:17 -43.62811 172.30767 3432 ft 188 kts 53°
2026-05-08 08:18 -43.62310 172.32445 3170 ft 189 kts 54°
2026-05-08 08:18 -43.61816 172.34115 2921 ft 187 kts 55°
2026-05-08 08:18 -43.61327 172.35768 2681 ft 186 kts 55°
2026-05-08 08:18 -43.60842 172.37424 2434 ft 183 kts 54°
2026-05-08 08:19 -43.60368 172.39022 2175 ft 177 kts 55°
2026-05-08 08:19 -43.59801 172.40421 2010 ft 156 kts 39°
2026-05-08 08:19 -43.59056 172.41449 1920 ft 151 kts 30°
2026-05-08 08:19 -43.58242 172.42375 1810 ft 152 kts 28°
2026-05-08 08:20 -43.57437 172.43294 1697 ft 148 kts 28°
2026-05-08 08:20 -43.56648 172.44203 1585 ft 151 kts 30°
2026-05-08 08:20 -43.55825 172.45155 1448 ft 153 kts 31°
2026-05-08 08:20 -43.55060 172.46065 1315 ft 137 kts 31°
2026-05-08 08:21 -43.54347 172.46882 1190 ft 133 kts 31°
2026-05-08 08:21 -43.53665 172.47678 1046 ft 126 kts 31°
2026-05-08 08:21 -43.52984 172.48460 916 ft 129 kts 32°
2026-05-08 08:21 -43.52281 172.49269 782 ft 129 kts 36°
2026-05-08 08:22 -43.51639 172.50029 645 ft 119 kts 36°
2026-05-08 08:22 -43.50984 172.50780 523 ft 125 kts 37°
2026-05-08 08:22 -43.50338 172.51543 324 ft 121 kts 39°
2026-05-08 08:22 -43.49678 172.52310 150 ft 124 kts 37°
2026-05-08 08:23 -43.49117 172.52954 117 ft 81 kts 40°
2026-05-08 08:23 -43.48825 172.53285 120 ft 18 kts 43°
2026-05-08 08:23 -43.48793 172.53351 119 ft 0 kts 101°
2026-05-08 08:23 -43.48806 172.53384 116 ft 11 kts 126°
2026-05-08 08:24 -43.48882 172.53503 118 ft 9 kts 130°
2026-05-08 08:24 -43.48885 172.53508 118 ft 1 kts 125°
2026-05-08 08:24 -43.48883 172.53566 120 ft 6 kts 62°
2026-05-08 08:24 -43.48865 172.53590 118 ft 4 kts 56°
2026-05-08 08:25 -43.48893 172.53668 119 ft 15 kts 130°
2026-05-08 08:25 -43.48919 172.53713 118 ft 1 kts 128°
2026-05-08 08:25 -43.48920 172.53715 116 ft 0 kts 128°
2026-05-08 08:26 -43.48921 172.53715 115 ft 0 kts 128°